Location: Newark
(42.9277°N, 71.8621°W)
Time: 05:27:32
(UTC+00:00)

Transit 4A - Visible Passes

Search period start: 28 May 2020 00:00
Search period end: 07 June 2020 00:00
Orbit: 869 x 976 km, 66.8° (Epoch: 27 May)

Date Brightness Start Highest point End Pass type
(mag) Time Alt. Az. Time Alt. Az. Time Alt. Az.
28 May 10.0 05:10:26 11° ESE 05:11:21 11° E 05:12:49 10° E visible
28 May 7.8 06:53:56 33° SSW 06:56:39 78° ESE 07:02:33 10° NNE visible
29 May 9.5 05:19:30 17° ESE 05:20:20 18° ESE 05:24:06 10° ENE visible
29 May 7.8 07:03:00 30° SW 07:05:58 73° WNW 07:11:54 10° NNE visible
30 May 9.0 05:28:31 26° ESE 05:29:22 27° ESE 05:34:13 10° NE visible
30 May 8.3 07:12:01 24° WSW 07:15:22 50° NW 07:21:09 10° NNE visible
31 May 8.4 05:37:31 38° SE 05:38:29 41° ESE 05:43:57 10° NE visible
31 May 8.8 07:21:00 17° WSW 07:24:52 36° NW 07:30:19 10° NNE visible
01 Jun 7.9 05:46:27 50° SSE 05:47:41 61° ESE 05:53:30 10° NE visible
01 Jun 9.3 07:29:57 11° W 07:34:28 26° NW 07:39:25 10° NNE visible
02 Jun 9.8 04:11:52 13° E 04:11:52 13° E 04:14:10 10° ENE visible
02 Jun 7.7 05:55:22 51° SSW 05:56:57 89° ESE 06:02:54 10° NNE visible
02 Jun 9.7 07:39:55 10° W 07:44:08 20° NW 07:48:25 10° N visible
03 Jun 9.3 04:20:44 21° ESE 04:20:44 21° ESE 04:24:46 10° ENE visible
03 Jun 8.0 06:04:13 39° WSW 06:06:19 64° NW 06:12:12 10° NNE visible
03 Jun 10.0 07:50:34 10° WNW 07:53:54 15° NNW 07:57:18 10° N visible
04 Jun 8.7 04:29:33 31° ESE 04:29:36 31° ESE 04:34:43 10° NE visible
04 Jun 8.5 06:13:03 27° WSW 06:15:44 45° NW 06:21:26 10° NNE visible
04 Jun 10.2 08:01:40 10° NW 08:03:46 12° NNW 08:05:53 10° N visible
05 Jun 8.1 04:38:20 46° SE 04:38:45 47° ESE 04:44:22 10° NE visible
05 Jun 9.1 06:21:49 18° W 06:25:16 32° NW 06:30:34 10° NNE visible
06 Jun 7.7 04:47:04 60° SSE 04:47:58 71° ESE 04:53:52 10° NE visible
06 Jun 9.6 06:30:32 11° W 06:34:53 24° NW 06:39:38 10° N visible
